Weather History for Tampa, FL

Change the Weather History Date:

Saturday, March 9, 2013

  Actual Average Record
Temperature  
Mean Temperature 65 °F 66 °F  
Max Temperature 77 °F 75 °F 87 °F (1951)
Min Temperature 52 °F 57 °F 33 °F (1996)
Degree Days  
Heating Degree Days 0 2  
Month to date heating degree days 76 24  
Since 1 July heating degree days 333 495  
Cooling Degree Days 0 4  
Month to date cooling degree days 0 30  
Year to date cooling degree days 214 143  
Growing Degree Days 14 (Base 50)    
Moisture  
Dew Point 45 °F    
Average Humidity 55    
Maximum Humidity 83    
Minimum Humidity 27    
Precipitation  
Precipitation 0.00 in 0.10 in 2.59 in (1924)
Month to date precipitation 0.01 0.87  
Year to date precipitation 1.57 5.91  
Sea Level Pressure  
Sea Level Pressure 30.20 in    
Wind  
Wind Speed 5 mph (NE)    
Max Wind Speed 12 mph    
Max Gust Speed 18 mph    
Visibility 9 miles    
Events      
T = Trace of Precipitation, MM = Missing Value Source: NWS Daily Summary

Daily Weather History Graph

Daily Weather History Graph

Search for Another Location

Airport:

Trip Planner

Search our weather history database for the weather conditions in past years. The results will help you decide how hot, cold, wet, or windy it might be!

Date:

Astronomy

Mar. 09, 2013 Rise Set
Actual Time 6:46 AM EST 6:35 PM EST
Civil Twilight 6:22 AM EST 6:58 PM EST
Nautical Twilight 5:55 AM EST 7:26 PM EST
Astronomical Twilight 5:28 AM EST 7:53 PM EST
Moon 5:00 AM EST (3/9) 4:42 PM EST (3/9)
Length of Visible Light 12h 36m
Length of Day
11h 49m
Waning Crescent, 5% of the Moon is Illuminated
Mar 9
Waning Crescent
Mar 11
New
Mar 19
First Quarter
Mar 27
Full
Apr 3
Last Quarter

Hourly Weather History & Observations

Time (EST) Temp. Dew Point Humidity Pressure Visibility Wind Dir Wind Speed Gust Speed Precip Events Conditions
12:53 AM 55.9 °F 41.0 °F 57% 30.20 in 10.0 mi Calm Calm - N/A   Partly Cloudy
1:53 AM 55.0 °F 43.0 °F 64% 30.21 in 10.0 mi NNE 3.5 mph - N/A   Partly Cloudy
2:53 AM 55.0 °F 44.1 °F 67% 30.18 in 9.0 mi ENE 4.6 mph - N/A   Partly Cloudy
3:53 AM 53.1 °F 45.0 °F 74% 30.18 in 8.0 mi Calm Calm - N/A   Partly Cloudy
4:53 AM 53.1 °F 45.0 °F 74% 30.18 in 7.0 mi ENE 4.6 mph - N/A   Partly Cloudy
5:53 AM 52.0 °F 46.0 °F 80% 30.19 in 8.0 mi NE 3.5 mph - N/A   Clear
6:53 AM 52.0 °F 46.0 °F 80% 30.21 in 8.0 mi Calm Calm - N/A   Partly Cloudy
7:53 AM 54.0 °F 46.9 °F 77% 30.23 in 6.0 mi NE 5.8 mph - N/A   Haze
8:53 AM 61.0 °F 46.0 °F 58% 30.24 in 9.0 mi ENE 4.6 mph - N/A   Scattered Clouds
9:53 AM 64.9 °F 44.1 °F 47% 30.23 in 10.0 mi ENE 10.4 mph - N/A   Mostly Cloudy
10:53 AM 69.1 °F 41.0 °F 36% 30.24 in 10.0 mi Variable 5.8 mph - N/A   Mostly Cloudy
11:53 AM 71.1 °F 39.0 °F 31% 30.22 in 10.0 mi Variable 5.8 mph - N/A   Mostly Cloudy
12:53 PM 75.0 °F 39.9 °F 28% 30.21 in 10.0 mi Variable 4.6 mph - N/A   Mostly Cloudy
1:53 PM 73.9 °F 39.9 °F 29% 30.17 in 10.0 mi NNE 5.8 mph - N/A   Overcast
2:53 PM 75.0 °F 43.0 °F 32% 30.16 in 10.0 mi ENE 3.5 mph - N/A   Overcast
3:53 PM 71.1 °F 46.0 °F 41% 30.16 in 10.0 mi WSW 9.2 mph - N/A   Mostly Cloudy
4:53 PM 73.0 °F 45.0 °F 37% 30.15 in 10.0 mi WSW 4.6 mph - N/A   Overcast
5:53 PM 70.0 °F 46.9 °F 44% 30.16 in 10.0 mi NW 4.6 mph - N/A   Overcast
6:53 PM 68.0 °F 46.9 °F 47% 30.18 in 10.0 mi WNW 4.6 mph - N/A   Mostly Cloudy
7:53 PM 64.9 °F 48.0 °F 54% 30.20 in 10.0 mi NNW 4.6 mph - N/A   Mostly Cloudy
8:53 PM 64.0 °F 48.0 °F 56% 30.20 in 10.0 mi Calm Calm - N/A   Scattered Clouds
9:53 PM 64.9 °F 48.9 °F 56% 30.21 in 10.0 mi East 5.8 mph - N/A   Scattered Clouds
10:53 PM 64.0 °F 48.9 °F 58% 30.20 in 10.0 mi East 8.1 mph - N/A   Mostly Cloudy
11:53 PM 63.0 °F 48.9 °F 60% 30.18 in 10.0 mi East 9.2 mph 17.3 mph N/A   Clear